SCP
0 0 0 0 0 0 0 0 0 0 0 0 0 0 0 0 0 0 0 0 0 0 0 0 0 0 0 0 0 0 0 0 0 0 0 0 0 0 0 0 0 0 0 -0
0 0 0 0 0 0 0 0 0 0 0 0 0 0 0 0 0 0 0 0 0 0 0 0 0 0 0 0 0 0 0 0 0 0 0 0 0 0 0 0 0 0 0 0
0 0 0 0 0 0 0 0 0 0 0 0 0 0 0 0 0 0 0 0 0 0 0 0 -0 -0 -0 0 0 0 0 0 0 0 0 0 0 0 0 0 0 0 0 0
0 0 0 0 0 0 0 0 0 0 0 0 0 0 0 0 0 0 0 0 0 0 0 0 -0 -0 -0 -0 0 0 0 0 0 0 0 0 0 0 0 0 0 0 0 0
0 0 0 0 0 0 0 0 0 0 0 0 0 0 0 0 0 0 0 0 0 0 0 0 0 0 0 0 0 0 0 0 0 0 0 0 0 0 0 0 0 0 0 0
0 0 0 0 0 0 0 0 0 0 0 0 0 0 0 0 0 0 0 0 0 0 0 0 0 0 0 0 0 0 0 0 0 0 0 0 0 0 0 0 0 0 0 0
0 0 0 0 0 0 0 0 0 0 0 0 0 0 0 0 0 0 0 0 0 0 0 0 0 0 0 0 0 0 0 0 0 0 0 0 0 0 0 0 0 0 0 0
0 0 0 0 0 0 0 0 0 0 0 0 0 0 0 0 0 0 0 0 0 0 0 0 0 0 0 0 0 0 0 0 0 0 0 0 0 0 0 0 0 0 0 0
0 0 0 0 0 0 0 0 0 0 0 0 0 0 0 0 0 0 0 0 0 0 0 0 0 0 0 0 0 0 0 0 0 0 0 0 0 0 0 0 0 0 0 0
0 0 0 0 0 0 0 0 0 0 0 0 0 0 0 0 0 0 0 0 0 0 0 0 0 0 0 0 0 0 0 0 0 0 0 0 0 0 0 0 0 0 0 0
0 0 0 0 0 0 0 0 0 0 0 0 0 0 0 0 0 0 0 0 0 0 0 0 0 0 0 0 0 0 0 0 0 0 0 0 0 0 0 0 0 0 0 0
0 0 0 0 0 0 0 0 0 0 0 0 0 0 0 0 0 0 0 0 0 0 0 0 0 0 0 0 0 0 0 0 0 0 0 0 0 0 0 0 0 0 0 0
0 0 0 0 0 0 0 0 0 0 0 0 0 0 0 0 0 0 0 0 0 0 0 0 0 0 0 0 0 0 0 0 0 0 0 0 0 0 0 0 0 0 0 0
0 0 0 0 0 0 0 0 0 0 0 0 0 0 0 0 0 0 0 0 0 0 0 0 0 0 0 0 0 0 0 0 0 0 0 0 0 0 0 0 0 0 0 0
0 0 0 0 0 0 0 0 0 0 0 0 0 0 0 0 0 0 0 0 0 0 0 0 0 0 0 0 0 0 0 0 0 0 0 0 0 0 0 0 0 0 0 0
0 0 0 0 0 0 0 0 0 0 0 0 0 0 0 0 0 0 0 0 0 0 0 0 0 0 0 0 0 0 0 0 0 0 0 0 0 0 0 0 0 0 0 0
0 0 0 0 0 0 0 0 0 0 0 0 0 0 0 0 0 0 0 0 0 0 0 0 0 0 0 0 0 0 0 0 0 0 0 0 0 0 0 0 0 0 0 0
0 0 0 0 0 0 0 0 0 0 0 0 0 0 0 0 0 0 0 0 0 0 0 0 0 0 0 0 0 0 0 0 0 0 0 0 0 0 0 0 0 0 0 0
0 0 0 0 0 0 0 0 0 0 0 0 0 0 0 0 0 0 -0 -0 0 0 0 0 0 0 0 0 0 0 0 0 0 0 0 0 0 0 0 0 0 0 0 0
0 0 0 0 0 0 0 0 0 0 0 0 0 0 0 0 0 0 0 0 0 0 0 0 0 0 0 0 0 0 0 0 0 0 0 0 0 0 0 0 0 0 0 0
0 0 0 0 0 0 0 0 0 0 0 0 0 0 0 0 0 0 0 0 0 0 0 0 0 0 0 0 0 0 0 0 0 0 0 0 0 0 0 0 0 0 0 0
0 0 0 0 0 0 0 0 0 0 0 0 0 0 0 0 0 0 0 0 0 0 0 0 0 0 0 0 0 0 0 0 0 0 0 0 0 0 0 0 0 0 0 0
0 0 0 0 0 0 0 0 0 0 0 0 0 0 0 0 0 0 0 0 0 0 0 0 0 0 0 0 0 0 0 0 0 0 0 0 0 0 0 0 0 0 0 0
0 0 0 0 0 0 0 0 0 0 0 0 0 0 0 0 0 0 0 0 0 0 0 0 0 0 0 0 0 0 0 0 0 0 0 0 0 0 0 0 0 0 0 0
0 0 0 0 0 0 0 0 0 0 0 0 0 0 0 0 0 0 0 0 0 0 0 0 0 0 0 0 0 0 0 0 0 0 0 0 0 0 0 0 0 0 0 0
0 0 0 0 0 0 0 0 0 0 0 0 0 0 0 0 0 0 0 0 0 0 0 0 0 0 0 0 0 0 0 0 0 0 0 0 0 0 0 0 0 0 0 0
0 0 0 0 0 0 0 0 0 0 0 0 0 0 0 0 0 0 0 0 0 0 0 0 0 0 0 0 0 0 0 0 0 0 0 0 0 0 0 0 0 0 0 0
Wind_Speed
20 22 21 20 20 19 19 18 16 16 20 21 15 4 1 2 3 4 4 5 7 8 8 9 10 10 10 11 11 11 11 11 11 12 12 13 13 14 14 13 12 12 12 13
16 20 19 21 23 25 24 23 24 26 28 9 3 0 2 4 5 7 7 7 8 8 9 9 9 9 9 10 10 10 11 11 11 11 12 12 13 14 14 14 13 13 12 13
17 17 15 19 21 25 25 25 25 26 13 5 1 3 6 8 9 10 9 9 10 10 10 9 9 9 9 9 9 10 10 10 10 11 12 13 13 14 14 14 14 14 14 13
10 7 22 14 5 11 17 18 10 2 4 2 3 7 9 10 11 12 11 11 12 12 13 11 11 10 10 9 10 10 10 10 10 11 12 13 14 15 15 14 14 14 14 15
7 13 17 11 6 5 8 8 4 5 4 4 6 10 12 10 11 13 14 13 13 13 13 13 13 11 10 11 11 11 12 11 11 11 12 14 15 16 15 15 15 15 14 15
9 11 11 6 1 2 2 5 4 5 6 8 8 11 13 12 12 14 15 14 13 13 13 13 13 10 12 13 13 14 13 12 12 11 11 14 16 17 16 15 16 16 16 15
14 13 10 4 4 4 6 2 5 9 11 12 12 14 16 16 15 15 16 16 15 14 13 13 12 11 14 16 16 14 13 13 13 13 13 15 16 16 16 16 17 17 18 17
5 9 10 4 7 6 6 5 9 12 13 15 16 17 17 17 17 17 17 16 14 13 14 15 13 13 16 18 16 14 14 15 15 15 15 14 16 17 17 16 17 18 17 18
9 9 6 6 10 10 12 16 17 16 16 16 17 17 17 17 16 15 13 12 12 13 16 16 14 13 16 18 16 16 15 16 17 19 17 16 17 18 17 15 15 15 15 15
13 17 19 18 19 20 20 19 17 16 15 15 16 15 13 12 11 11 12 12 12 13 16 17 15 15 15 17 17 16 19 21 19 19 19 18 15 15 14 14 15 15 15 15
18 21 20 21 21 20 19 14 12 9 6 6 7 8 8 9 10 10 11 11 12 13 16 18 18 18 17 17 18 20 21 21 20 18 18 17 16 15 17 16 17 18 15 15
19 20 18 19 17 15 15 11 5 4 2 1 3 7 8 8 9 10 12 12 13 14 16 18 18 19 18 17 17 19 19 18 16 15 15 15 16 17 24 27 31 35 34 30
24 24 22 22 16 8 6 2 1 0 2 3 4 5 7 9 10 11 12 13 14 15 17 18 18 19 18 17 17 18 19 18 16 15 15 16 16 17 17 19 26 30 32 33
19 18 20 16 7 3 4 3 2 1 2 2 4 5 7 9 10 11 12 13 15 16 17 17 18 19 18 17 18 18 19 19 18 15 15 15 16 16 16 16 16 15 19 26
11 7 7 3 6 5 4 2 1 2 2 3 4 6 8 10 12 13 13 14 15 16 16 16 17 18 16 16 18 19 17 15 14 14 15 15 16 16 15 17 16 15 14 16
4 5 4 5 5 4 2 1 2 3 4 5 6 7 9 10 12 14 14 13 14 17 17 17 17 17 16 17 18 16 15 19 18 15 15 15 15 15 15 14 14 13 13 12
6 5 6 5 5 3 2 3 4 5 5 6 8 9 10 11 12 12 12 12 13 15 16 16 16 16 16 16 17 14 14 15 19 16 14 14 14 14 13 12 12 11 11 12
4 4 3 2 2 3 4 4 5 6 7 7 7 7 8 9 11 13 13 14 14 14 13 13 15 16 15 16 14 13 12 12 12 13 13 13 13 11 10 9 9 10 8 8
4 3 2 0 2 3 5 6 6 7 7 7 7 8 9 10 11 12 13 13 13 13 12 14 20 17 16 16 16 11 12 12 12 11 11 13 12 10 9 7 6 6 6 5
2 1 1 3 4 4 6 6 6 7 7 6 7 8 9 10 10 10 12 11 9 9 13 15 15 14 14 14 15 10 11 11 11 10 10 10 10 10 9 9 8 8 8 7
1 2 3 4 5 6 7 6 6 8 8 6 7 9 9 10 9 8 9 9 8 10 13 13 11 11 11 12 13 10 10 10 10 9 9 9 9 9 9 9 9 8 8 7
2 3 4 5 5 7 6 6 6 7 8 8 8 8 8 9 9 8 7 6 9 12 10 8 9 12 13 12 9 10 10 10 9 9 9 9 9 9 9 9 9 8 8 8
3 4 5 5 6 7 7 7 7 7 7 7 7 7 7 7 6 6 6 6 8 11 9 7 12 15 14 9 8 9 10 10 10 9 9 9 8 8 8 9 8 8 8 8
3 4 5 5 4 5 6 6 6 5 6 6 6 5 5 5 5 4 5 8 9 10 7 9 14 14 12 7 8 8 9 9 9 9 9 8 8 8 8 8 8 8 8 9
4 4 3 3 4 4 5 6 6 5 4 4 4 3 3 3 4 5 5 6 8 8 6 8 12 13 9 7 8 8 8 8 8 8 8 8 8 8 8 8 8 7 7 7
2 2 3 3 3 4 4 4 4 3 3 4 3 3 3 3 4 4 4 5 6 6 6 6 7 8 7 7 7 8 7 8 8 8 8 7 8 8 7 7 9 7 6 6
1 2 2 2 2 3 3 3 3 3 4 4 4 3 4 4 4 4 5 4 5 5 5 5 5 5 6 6 6 6 6 6 6 7 7 6 6 6 7 8 6 6 5 5
Wind_Direction
272 278 279 277 276 272 265 267 271 277 280 282 296 309 315 290 263 269 297 321 331 330 329 331 333 336 339 338 343 343 341 343 344 341 340 338 337 335 332 326 316 302 285 268
276 277 276 275 270 268 269 272 271 274 275 300 64 57 296 305 285 277 291 307 314 313 310 309 312 315 318 321 327 330 328 329 330 332 334 334 332 329 327 326 321 311 294 277
272 280 286 263 259 267 270 268 273 277 295 90 52 313 311 311 302 289 293 304 312 314 309 301 297 296 298 302 308 311 311 314 318 323 325 325 324 323 322 320 316 311 301 290
269 261 255 271 306 273 272 276 283 272 128 162 288 299 295 291 291 286 285 295 306 311 309 303 295 289 288 289 292 294 297 301 307 314 316 317 317 315 314 313 309 304 300 293
247 257 268 280 255 226 249 266 202 179 195 264 292 297 289 284 280 278 278 285 294 301 303 299 294 292 288 285 285 285 287 291 298 306 308 310 309 308 308 306 301 297 292 287
236 250 258 275 87 131 220 260 182 201 244 278 290 292 302 316 303 288 281 282 288 297 300 295 295 294 286 285 286 285 286 289 294 297 298 299 300 300 299 296 292 292 287 282
241 253 266 273 145 168 229 258 192 226 255 275 273 276 294 301 299 292 287 286 291 297 298 296 299 296 288 288 289 292 292 290 290 293 295 294 293 291 291 290 288 285 282 278
226 245 259 158 165 210 246 270 275 280 281 282 282 285 289 292 296 297 296 298 303 305 300 301 305 302 295 294 300 303 299 294 294 294 293 290 288 286 285 283 281 279 278 276
206 241 271 201 219 248 275 287 292 292 290 288 287 287 290 294 299 303 307 309 311 307 303 302 308 309 301 304 312 310 304 297 293 292 288 285 281 281 280 276 271 272 272 273
253 260 266 266 264 270 275 279 283 285 287 288 288 291 296 299 304 309 311 314 317 315 307 305 313 314 311 314 315 308 299 296 295 293 290 286 280 275 272 270 269 269 269 270
255 265 274 269 267 269 272 271 271 276 284 291 296 295 301 304 309 314 317 322 322 315 308 308 313 312 313 311 308 300 297 295 294 291 288 287 281 273 273 265 264 269 270 271
257 265 267 271 274 272 269 268 265 274 280 344 322 306 312 309 316 319 319 320 315 311 308 307 308 305 305 304 300 297 296 295 293 291 289 286 285 283 275 272 274 271 268 266
258 266 269 273 275 275 259 221 142 40 307 310 322 328 320 313 316 317 314 312 310 308 304 302 301 300 301 299 296 292 291 291 289 286 284 283 281 282 285 283 278 277 276 273
256 261 264 265 252 142 129 113 87 1 312 325 333 331 319 312 311 310 308 309 306 302 299 298 297 296 298 298 297 293 290 288 285 282 280 279 278 277 278 282 285 281 280 279
251 244 250 138 122 124 115 111 228 260 288 310 324 318 315 311 309 306 305 303 300 297 296 297 298 299 302 303 299 295 292 287 284 282 280 278 276 275 274 274 275 279 280 280
119 107 124 158 166 155 156 217 260 277 294 302 305 307 308 305 300 298 297 298 299 300 302 302 301 304 308 304 300 297 293 290 290 287 284 281 278 274 272 271 271 273 275 278
160 183 186 193 194 204 236 265 278 289 295 295 297 303 303 299 296 293 294 296 297 297 299 302 306 310 306 304 304 300 297 295 295 293 289 287 284 279 274 270 269 271 275 278
74 94 115 146 199 250 270 279 284 288 286 287 293 293 290 289 293 297 301 305 305 302 303 313 314 312 313 311 306 302 301 301 302 302 301 301 302 298 292 284 281 281 286 296
91 93 85 352 298 282 279 278 280 281 283 285 287 285 283 282 285 293 302 307 308 311 320 324 321 322 315 313 315 312 311 311 311 313 317 322 329 336 339 338 336 339 344 353
93 34 316 295 287 274 272 275 279 279 277 276 276 279 282 283 287 297 303 301 296 309 315 318 320 318 319 323 326 319 318 320 322 327 333 340 345 351 356 1 5 9 13 19
257 282 286 285 285 281 276 276 274 275 279 273 267 272 279 288 293 297 300 301 308 321 319 321 322 325 332 334 330 330 330 331 334 339 344 347 351 356 1 5 10 15 19 25
259 273 279 282 282 283 282 277 266 266 273 272 266 267 278 289 297 298 288 283 308 320 323 327 326 340 347 343 341 342 343 343 344 346 350 354 356 359 3 6 11 17 23 31
263 266 272 273 272 279 288 282 266 259 262 268 272 277 284 292 299 299 302 308 317 324 329 328 335 350 353 350 350 351 352 354 354 354 355 357 359 1 4 7 12 18 24 32
264 263 269 271 267 270 281 288 284 274 268 273 274 277 289 296 293 277 292 307 319 326 330 334 347 356 355 354 354 356 358 359 359 359 -0 2 4 7 9 11 14 19 26 34
259 266 264 277 280 279 285 293 295 296 301 303 309 316 315 302 292 302 308 316 328 336 336 342 351 354 354 353 356 356 358 1 0 360 3 6 8 9 12 14 16 19 23 27
251 269 275 270 271 289 298 302 306 318 326 325 326 336 336 326 315 313 316 325 334 339 342 340 342 347 350 350 351 353 354 353 357 2 3 3 5 9 10 10 16 17 19 22
280 288 296 307 316 319 314 312 317 326 331 329 324 330 336 334 332 332 332 334 337 339 339 337 339 342 343 344 344 347 349 349 351 352 353 355 357 358 357 360 1 1 4 8